• In India
  • List of Countries
  • For 7 days
  • Water Temperature
  • Satellite Maps
  • Weather Map
  • Weather Widgets
  • user-avatar
    Login

    Hourly Weather Heidelberg

    Today, 23 January, Tuesday

    Time Temperature Precipitation Wind Pressure Humidity
    00:00 +3°C° 0 mm 3 mps 734 mmHg 88%
    01:00 +4°C° 0 mm 3 mps 735 mmHg 86%
    02:00 +4°C° 0 mm 3 mps 736 mmHg 85%
    03:00 +4°C° 0 mm 3 mps 736 mmHg 85%
    04:00 +4°C° 0 mm 3 mps 737 mmHg 84%
    05:00 +3°C° 0 mm 3 mps 737 mmHg 85%
    06:00 +4°C° 0 mm 2 mps 737 mmHg 86%
    07:00 +4°C° 0 mm 2 mps 738 mmHg 88%
    08:00 +4°C° 0 mm 2 mps 738 mmHg 87%
    09:00 +4°C° 0 mm 2 mps 738 mmHg 86%
    10:00 +5°C° 0 mm 2 mps 739 mmHg 85%
    11:00 +5°C° 0 mm 3 mps 739 mmHg 80%
    12:00 +7°C° 0 mm 3 mps 739 mmHg 75%
    13:00 +7°C° 0 mm 4 mps 739 mmHg 70%
    14:00 +7°C° 0 mm 3 mps 739 mmHg 72%
    15:00 +7°C° 0 mm 3 mps 739 mmHg 74%
    16:00 +7°C° 0 mm 3 mps 739 mmHg 76%
    17:00 +5°C° 0 mm 3 mps 738 mmHg 79%
    18:00 +4°C° 0 mm 3 mps 738 mmHg 82%
    19:00 +4°C° 0 mm 3 mps 738 mmHg 86%
    20:00 +4°C° 0 mm 3 mps 738 mmHg 86%
    21:00 +4°C° 0 mm 3 mps 738 mmHg 86%
    22:00 +4°C° 0 mm 3 mps 738 mmHg 86%
    23:00 +4°C° 0 mm 3 mps 738 mmHg 86%

    Tomorrow, 24 January, Wednesday

    Time Temperature Precipitation Wind Pressure Humidity
    00:00 +4°C° 0 mm 3 mps 738 mmHg 87%
    01:00 +5°C° 0 mm 4 mps 738 mmHg 87%
    02:00 +5°C° 0 mm 4 mps 738 mmHg 88%
    03:00 +5°C° 0 mm 3 mps 738 mmHg 89%
    04:00 +5°C° 0 mm 3 mps 738 mmHg 90%
    05:00 +5°C° 0 mm 3 mps 738 mmHg 90%
    06:00 +5°C° 0 mm 3 mps 738 mmHg 90%
    07:00 +5°C° 0 mm 3 mps 738 mmHg 89%
    08:00 +5°C° 0 mm 3 mps 738 mmHg 88%
    09:00 +7°C° 0 mm 3 mps 737 mmHg 87%
    10:00 +7°C° 0 mm 3 mps 737 mmHg 86%
    11:00 +8°C° 0 mm 3 mps 737 mmHg 83%
    12:00 +8°C° 0 mm 4 mps 737 mmHg 80%
    13:00 +10°C° 0 mm 4 mps 736 mmHg 77%
    14:00 +10°C° 0 mm 3 mps 736 mmHg 78%
    15:00 +10°C° 0 mm 3 mps 735 mmHg 79%
    16:00 +10°C° 0 mm 3 mps 735 mmHg 80%
    17:00 +9°C° 0 mm 3 mps 735 mmHg 82%
    18:00 +8°C° 0 mm 3 mps 735 mmHg 84%
    19:00 +8°C° 0 mm 3 mps 734 mmHg 85%
    20:00 +8°C° 0 mm 3 mps 734 mmHg 83%
    21:00 +8°C° 0 mm 3 mps 734 mmHg 80%
    22:00 +6°C° 0 mm 4 mps 734 mmHg 78%
    23:00 +6°C° 0 mm 4 mps 734 mmHg 77%

    Day after tomorrow, 25 January, Thursday

    Time Temperature Precipitation Wind Pressure Humidity
    00:00 +6°C° 0 mm 4 mps 733 mmHg 76%
    01:00 +6°C° 0 mm 4 mps 733 mmHg 75%
    02:00 +6°C° 0 mm 4 mps 733 mmHg 76%
    03:00 +6°C° 0 mm 4 mps 733 mmHg 76%
    04:00 +6°C° 0 mm 4 mps 733 mmHg 77%
    05:00 +6°C° 0.1 mm 4 mps 732 mmHg 78%
    06:00 +6°C° 0.1 mm 4 mps 732 mmHg 78%
    07:00 +6°C° 0.1 mm 4 mps 732 mmHg 79%
    08:00 +7°C° 0.2 mm 3 mps 732 mmHg 79%
    09:00 +7°C° 0.2 mm 3 mps 732 mmHg 79%
    10:00 +7°C° 0.2 mm 3 mps 731 mmHg 79%
    11:00 +8°C° 0.1 mm 3 mps 731 mmHg 76%
    12:00 +9°C° 0.1 mm 3 mps 731 mmHg 73%
    13:00 +10°C° 0.1 mm 4 mps 731 mmHg 70%
    14:00 +9°C° 0 mm 3 mps 730 mmHg 72%
    15:00 +9°C° 0 mm 2 mps 730 mmHg 75%
    16:00 +8°C° 0 mm 2 mps 730 mmHg 77%
    17:00 +8°C° 0.4 mm 2 mps 730 mmHg 79%
    18:00 +7°C° 0.4 mm 2 mps 730 mmHg 82%
    19:00 +7°C° 0.4 mm 2 mps 730 mmHg 85%
    20:00 +7°C° 0.4 mm 2 mps 730 mmHg 86%
    21:00 +6°C° 0.4 mm 2 mps 730 mmHg 87%
    22:00 +7°C° 0.4 mm 1 mps 730 mmHg 88%
    23:00 +6°C° 0.9 mm 2 mps 730 mmHg 88%

    26 January, Friday

    Time Temperature Precipitation Wind Pressure Humidity
    00:00 +5°C° 0.9 mm 2 mps 730 mmHg 89%
    01:00 +5°C° 0.9 mm 2 mps 730 mmHg 89%
    02:00 +5°C° 0.8 mm 2 mps 730 mmHg 89%
    03:00 +5°C° 0.8 mm 2 mps 730 mmHg 89%
    04:00 +4°C° 0.8 mm 2 mps 730 mmHg 88%
    05:00 +5°C° 0.4 mm 1 mps 731 mmHg 89%
    06:00 +5°C° 0.4 mm 1 mps 731 mmHg 89%
    07:00 +5°C° 0.4 mm 1 mps 732 mmHg 90%
    08:00 +5°C° 0.1 mm 1 mps 732 mmHg 89%
    09:00 +5°C° 0.1 mm 1 mps 733 mmHg 89%
    10:00 +5°C° 0.1 mm 1 mps 733 mmHg 89%
    11:00 +5°C° 0 mm 1 mps 733 mmHg 87%
    12:00 +5°C° 0 mm 2 mps 734 mmHg 84%
    13:00 +5°C° 0 mm 2 mps 734 mmHg 82%
    14:00 +5°C° 0 mm 2 mps 734 mmHg 82%
    15:00 +5°C° 0 mm 2 mps 735 mmHg 83%
    16:00 +5°C° 0 mm 2 mps 735 mmHg 83%
    17:00 +5°C° 0 mm 2 mps 735 mmHg 85%
    18:00 +4°C° 0 mm 2 mps 736 mmHg 87%
    19:00 +4°C° 0 mm 2 mps 736 mmHg 89%
    20:00 +4°C° 0 mm 2 mps 737 mmHg 90%
    21:00 +3°C° 0 mm 2 mps 737 mmHg 90%
    22:00 +3°C° 0 mm 2 mps 738 mmHg 91%
    23:00 +3°C° 0 mm 2 mps 738 mmHg 91%

    27 January, Saturday

    Time Temperature Precipitation Wind Pressure Humidity
    00:00 +2°C° 0 mm 2 mps 738 mmHg 92%
    01:00 +3°C° 0 mm 1 mps 738 mmHg 92%
    02:00 +3°C° 0 mm 1 mps 739 mmHg 92%
    03:00 +2°C° 0 mm 1 mps 739 mmHg 93%
    04:00 +2°C° 0 mm 1 mps 739 mmHg 93%
    05:00 +2°C° 0 mm 1 mps 739 mmHg 93%
    06:00 +2°C° 0 mm 1 mps 740 mmHg 93%
    07:00 0°C° 0 mm 0 mps 740 mmHg 93%
    08:00 +1°C° 0 mm 0 mps 741 mmHg 91%
    09:00 +2°C° 0 mm 0 mps 741 mmHg 89%
    10:00 +2°C° 0 mm 0 mps 742 mmHg 87%
    11:00 +3°C° 0 mm 0 mps 742 mmHg 82%
    12:00 +4°C° 0 mm 0 mps 742 mmHg 77%
    13:00 +5°C° 0 mm 0 mps 742 mmHg 72%
    14:00 +5°C° 0 mm 0 mps 742 mmHg 73%
    15:00 +5°C° 0 mm 0 mps 743 mmHg 73%
    16:00 +5°C° 0 mm 0 mps 743 mmHg 73%
    17:00 +4°C° 0 mm 0 mps 743 mmHg 77%
    18:00 +3°C° 0 mm 0 mps 743 mmHg 80%
    19:00 +2°C° 0 mm 0 mps 743 mmHg 84%
    20:00 +2°C° 0 mm 0 mps 744 mmHg 85%
    21:00 +2°C° 0 mm 1 mps 744 mmHg 86%
    22:00 +2°C° 0 mm 1 mps 744 mmHg 87%
    23:00 +2°C° 0 mm 1 mps 744 mmHg 87%

    28 January, Sunday

    Time Temperature Precipitation Wind Pressure Humidity
    00:00 +2°C° 0 mm 1 mps 744 mmHg 88%
    01:00 +2°C° 0 mm 1 mps 744 mmHg 89%
    02:00 +1°C° 0 mm 1 mps 744 mmHg 88%
    03:00 -1°C° 0 mm 2 mps 744 mmHg 88%
    04:00 -1°C° 0 mm 2 mps 744 mmHg 88%
    05:00 -1°C° 0 mm 2 mps 744 mmHg 87%
    06:00 +1°C° 0 mm 2 mps 744 mmHg 86%
    07:00 0°C° 0 mm 3 mps 744 mmHg 84%
    08:00 0°C° 0.1 mm 3 mps 744 mmHg 81%
    09:00 +1°C° 0.1 mm 3 mps 744 mmHg 77%
    10:00 +1°C° 0.1 mm 4 mps 745 mmHg 74%
    11:00 +1°C° 0.1 mm 4 mps 745 mmHg 74%
    12:00 +1°C° 0.1 mm 4 mps 745 mmHg 75%
    13:00 +3°C° 0.1 mm 4 mps 745 mmHg 76%
    14:00 +3°C° 0.1 mm 4 mps 745 mmHg 78%
    15:00 +3°C° 0.1 mm 3 mps 745 mmHg 81%
    16:00 +3°C° 0.1 mm 3 mps 745 mmHg 83%
    17:00 +3°C° 0 mm 3 mps 745 mmHg 85%
    18:00 +2°C° 0 mm 3 mps 745 mmHg 88%
    19:00 +3°C° 0 mm 2 mps 745 mmHg 90%
    20:00 +3°C° 0 mm 2 mps 745 mmHg 91%
    21:00 +3°C° 0 mm 2 mps 746 mmHg 92%
    22:00 +3°C° 0 mm 2 mps 746 mmHg 93%
    23:00 +3°C° 0 mm 2 mps 746 mmHg 93%
    Show more